Regional Weather Roundup
Issued by NWS

Home | Current Version | Previous Version | Graphics & Text | Print | Product List | Glossary On
Versions: 1 2 3 4 5 6 7 8 9 10 11 12 13 14 15 16 17 18 19 20 21 22 23 24 25 26 27 28 29 30 31 32 33 34 35 36 37 38 39 40 41 42 43 44 45 46 47 48 49 50
000
ASUS44 KMEG 212210
RWRTN
TENNESSEE HOURLY STATE WEATHER ROUNDUP
NATIONAL WEATHER SERVICE MEMPHIS TN
500 PM CDT SUN SEP 21 2014

TNZ002-004-019-021-049-052-054-088>092-212300-
WEST TENNESSEE

CITY           SKY/WX    TMP DP  RH WIND       PRES   REMARKS
MEMPHIS INTL   PTSUNNY   86  69  56 N13       29.97R HX  90
NWS MEMPHIS      N/A     85 N/A N/A MISG        N/A
JACKSON        MOSUNNY   83  67  58 NW7       29.96S
DYERSBURG      SUNNY     82  57  42 N13       29.98S
UNION CITY     SUNNY     79  48  34 N12       29.97S
PARIS          SUNNY     79  54  41 VRB7      29.97R
HUNTINGDON     MOSUNNY   81  60  48 NW9       29.96R
LEXINGTON      SUNNY     82  66  57 NW10      29.94S
SAVANNAH       SUNNY     84  70  61 W7        29.95S
$$

TNZ008-025-027-028-033-062-065-066-212300-
NORTH MIDDLE TENNESSEE

CITY           SKY/WX    TMP DP  RH WIND       PRES   REMARKS
NASHVILLE      MOSUNNY   86  63  45 NW9       29.91S
DICKSON        SUNNY     82  64  54 NW10      29.94S
PORTLAND       MOSUNNY   82  61  47 NW13      29.91S
CLARKSVILLE    SUNNY     82  49  31 NW15      29.95R
LEBANON        MOSUNNY   84  60  44 NW14      29.90R
SMYRNA         PTSUNNY   85  64  49 N12       29.91S
MURFREESBORO   MOSUNNY   78  69  73 W5        29.91S
COOKEVILLE     MOSUNNY   79  72  78 N3        29.93R
GALLATIN       MOSUNNY   85  65  51 NW10      29.92R
CROSSVILLE     RAIN      74  68  81 NW6       29.96S
$$

TNZ061-075-076-078-094-096-097-212300-
SOUTH MIDDLE TENNESSEE

CITY           SKY/WX    TMP DP  RH WIND       PRES   REMARKS
LEWISBURG      MOSUNNY   85  71  62 W7        29.93S HX  90
FAYETTEVILLE   PTSUNNY   82  64  54 W13       29.94R
TULLAHOMA      MOSUNNY   73  70  88 W6        29.96R
WINCHESTER     MOSUNNY   84  66  54 W7        29.93S
MCMINNVILLE    SUNNY     75  73  94 SW6       29.93F
COLUMBIA       MOSUNNY   84  68  58 VRB6      29.92S
SHELBYVILLE    MOSUNNY   84  72  65 W9        29.93F
$$

TNZ017-018-042-046-047-212300-
NORTHEAST TENNESSEE

CITY           SKY/WX    TMP DP  RH WIND       PRES   REMARKS
TRI CITIES     TSTM      70  65  84 SW13      29.90R
ELIZABETHTON   HVY RAIN  66  66 100 VRB3      29.91R FOG
$$

TNZ012-013-036-069-073-074-212300-
CENTRAL EAST TENNESSEE

CITY           SKY/WX    TMP DP  RH WIND       PRES   REMARKS
KNOXVILLE      CLOUDY    72  69  90 W6        29.91F
OAK RIDGE      PTSUNNY   76  69  79 VRB5      29.91F
GATLINBURG     MOCLDY    73  64  73 SW8       29.91S
MORRISTOWN       N/A     75  68  78 W15       29.92S
$$

TNZ083-085-099-212300-
SOUTHEAST TENNESSEE

CITY           SKY/WX    TMP DP  RH WIND       PRES   REMARKS
CHATTANOOGA    PTSUNNY   85  64  49 SW6       29.91S
$$

SKY/WX REPORTED AS FAIR MEANS FEW OR NO CLOUDS BELOW
12 THOUSAND FEET.



USA.gov is the U.S. government's official web portal to all federal, state and local government web resources and services.